This demonstration page uses our WeatherBlox Daily Observations layout. Learn more.

Left ArrowRight Arrow

Hourly Observations for October 10, 2018

Temp ( °F °C ) Dew Point ( °F °C ) Humidity (%) Winds ( mph kmh ) Pressure ( in mb ) Visibility ( mi km ) Precip ( " mm )
12:51 am 00:51 Clear 49 9.4 35 1.7 59 59 E 5 7 29.83 1010 10 16 0.00 0.00
1:51 am 01:51 Clear 49 9.4 34 1.1 56 56 S 6 9 29.84 1010 10 16 0.00 0.00
2:51 am 02:51 Clear 48 8.9 36 2.2 63 63 VRB 3 6 29.84 1011 10 16 0.00 0.00
3:51 am 03:51 Clear 44 6.7 35 1.7 71 71 ESE 6 9 29.85 1011 10 16 0.00 0.00
4:51 am 04:51 Clear 45 7.2 36 2.2 71 71 SE 9 15 29.86 1011 10 16 0.00 0.00
5:51 am 05:51 Clear 46 7.8 35 1.7 66 66 S 9 15 29.88 1012 10 16 0.00 0.00
6:51 am 06:51 Sunny 49 9.4 37 2.8 64 64 SE 7 11 29.90 1012 10 16 0.00 0.00
7:51 am 07:51 Sunny 59 15 37 2.8 44 44 ESE 9 15 29.90 1013 10 16 0.00 0.00
8:51 am 08:51 Sunny 63 17.2 36 2.2 37 37 ESE 12 19 29.90 1013 10 16 0.00 0.00
9:51 am 09:51 Sunny N/A N/A N/A undefined N/A N/A N/A 0.00 0.00
10:51 am 10:51 Sunny N/A N/A N/A undefined N/A N/A N/A 0.00 0.00
11:51 am 11:51 Sunny 72 22.2 34 1.1 25 25 VRB 6 9 29.87 1011 10 16 0.00 0.00
12:51 pm 12:51 Sunny 74 23.3 34 1.1 23 23 NE 3 6 29.83 1010 10 16 0.00 0.00
1:51 pm 13:51 Sunny 77 25 34 1.1 21 21 VRB 7 11 29.79 1009 10 16 0.00 0.00
2:51 pm 14:51 Sunny 78 25.6 33 0.6 19 19 VRB 3 6 29.78 1008 10 16 0.00 0.00
3:51 pm 15:51 Sunny 78 25.6 33 0.6 19 19 NNE 5 7 29.76 1008 10 16 0.00 0.00
4:51 pm 16:51 Sunny 77 25 34 1.1 21 21 Calm 29.75 1008 10 16 0.00 0.00
5:51 pm 17:51 Sunny 72 22.2 37 2.8 28 28 NNW 6 9 29.77 1008 10 16 0.00 0.00
6:51 pm 18:51 Clear 67 19.4 38 3.3 35 35 WNW 7 11 29.78 1009 10 16 0.00 0.00
7:51 pm 19:51 Partly Cloudy 64 17.8 39 3.9 40 40 NW 5 7 29.79 1009 10 16 0.00 0.00
8:51 pm 20:51 Mostly Clear 62 16.7 39 3.9 43 43 NW 8 13 29.79 1009 10 16 0.00 0.00
9:51 pm 21:51 Mostly Cloudy 63 17.2 40 4.4 43 43 NNW 5 7 29.83 1010 10 16 0.00 0.00
10:51 pm 22:51 Mostly Clear 59 15 41 5 51 51 SSE 5 7 29.85 1011 10 16 0.00 0.00
11:51 pm 23:51 Mostly Clear 57 13.9 40 4.4 53 53 E 6 9 29.80 1009 10 16 0.00 0.00

Powered by AerisWeather